Wind_Speed
57 62 62 59 56 53 54 53 53 51 50 47 46 45 39 38 37 36 36 36 36 34 36 41 43 40 42 40 39 40 40 38 40 41 42 43 44 44 44 46 49 50 52 52
58 61 59 56 57 56 54 54 54 54 55 52 51 50 47 43 40 41 40 39 40 40 42 44 44 45 46 46 46 45 44 43 43 44 45 46 48 48 48 49 51 54 55 57
57 57 55 56 55 55 55 55 55 55 56 55 54 54 53 48 48 45 43 43 44 46 48 48 49 49 50 50 50 48 47 49 50 48 49 50 50 50 51 52 54 56 58 59
61 57 56 58 57 56 57 55 55 56 57 58 58 61 57 56 50 49 47 48 50 52 53 54 52 51 51 51 50 51 52 52 53 54 52 52 52 52 53 54 56 59 61 62
62 59 59 58 55 55 55 58 59 59 60 62 61 64 60 59 59 54 52 52 52 54 56 57 56 55 54 54 54 54 55 56 56 56 55 54 53 54 56 58 61 63 64 63
65 63 62 59 62 59 59 62 62 62 64 69 63 65 64 63 61 59 59 55 54 58 59 58 56 55 55 56 57 58 59 58 56 55 54 54 56 57 59 62 65 66 66 64
65 66 63 62 63 61 66 66 67 69 69 70 66 68 62 65 66 63 60 59 58 59 56 55 55 56 56 57 59 59 58 57 56 55 56 57 59 61 62 64 66 66 65 63
63 66 68 64 61 60 60 60 63 61 65 67 66 71 67 63 63 63 63 64 61 60 59 59 59 59 59 59 59 58 58 58 59 60 61 62 63 62 64 64 64 63 62 63
67 63 63 61 58 59 59 63 55 56 61 65 67 71 71 67 68 71 67 58 60 62 62 61 62 61 60 58 58 59 59 59 59 61 61 60 62 64 63 60 57 55 56 55
68 67 68 66 61 60 61 59 60 63 65 66 72 71 71 73 72 68 62 59 58 60 62 60 61 60 60 59 58 58 59 59 59 57 58 61 61 58 57 55 54 52 53 56
63 68 70 72 73 70 69 69 70 71 70 72 73 74 68 70 67 59 58 60 59 60 61 61 60 59 59 57 57 56 56 57 56 56 54 57 53 45 46 51 53 54 55 55
55 59 60 60 60 60 63 63 63 64 67 65 64 70 61 66 65 62 60 59 58 58 60 62 60 56 58 54 47 48 51 50 47 49 48 45 46 47 48 50 50 52 51 49
51 57 57 59 65 65 64 63 61 54 54 57 64 67 57 63 60 58 57 55 57 60 62 62 60 58 57 56 55 50 44 38 41 39 40 44 50 53 52 50 49 49 46 45
48 51 57 60 56 56 60 60 61 59 57 60 60 62 57 61 58 58 56 55 58 61 59 56 54 53 53 52 52 48 44 40 39 41 41 41 44 44 46 48 48 49 49 49
48 49 49 49 53 54 60 61 58 54 54 59 60 55 59 55 55 61 54 55 55 53 53 54 55 54 51 50 51 54 54 51 45 44 43 46 49 51 53 52 49 46 48 43
51 50 50 50 48 50 55 55 58 58 59 55 58 62 55 50 49 55 58 53 51 53 54 52 50 49 50 49 50 50 50 48 44 47 48 47 47 47 51 52 55 59 53 51
48 49 51 50 44 49 58 50 52 52 54 54 58 53 46 49 51 56 56 56 54 53 51 47 47 48 50 50 50 48 46 46 46 45 49 52 52 52 56 56 58 69 55 46
51 56 56 60 55 63 51 47 46 48 51 50 52 49 44 47 51 55 54 55 53 50 47 45 46 47 48 49 47 48 49 48 48 49 50 52 51 58 62 69 54 51 50 47
42 44 50 53 58 58 57 46 47 49 50 46 47 41 41 43 48 51 46 47 47 44 45 45 44 44 45 46 46 48 50 49 49 50 51 54 54 58 55 53 52 50 51 51
55 49 51 60 59 47 49 37 38 44 52 30 37 43 44 40 45 37 38 38 38 39 41 43 44 44 44 44 43 46 44 46 50 47 49 54 57 57 57 56 55 56 55 54
58 59 63 50 60 69 45 41 50 56 44 37 39 36 27 33 33 34 39 36 38 39 40 41 41 42 45 48 48 46 47 49 50 51 53 55 56 56 57 58 57 57 58 57
67 70 73 73 66 70 48 52 57 52 53 51 51 49 37 32 37 38 38 39 40 43 47 47 46 47 48 48 48 45 46 54 55 52 53 55 55 57 58 58 59 60 59 58
74 76 78 72 76 68 58 59 63 57 54 56 53 59 59 55 53 51 48 44 46 48 50 51 52 48 50 50 48 48 53 55 54 54 56 58 58 59 60 61 60 59 60 62
67 70 77 79 77 71 69 68 60 62 50 51 55 53 57 58 49 51 55 54 52 50 53 54 54 50 50 49 49 51 53 54 56 58 59 60 60 60 59 59 60 62 64 67
51 54 59 69 75 77 72 64 65 65 59 52 51 57 59 58 58 54 54 55 52 52 54 55 54 52 51 51 52 52 53 55 56 58 59 60 60 59 60 62 65 68 70 73
49 49 51 49 41 51 71 78 77 63 33 41 46 44 47 53 58 59 58 58 55 55 52 52 55 53 54 53 53 54 55 56 57 58 59 60 61 63 65 67 70 73 76 80
Wind_Direction
231 233 231 232 234 235 236 235 235 238 239 239 242 247 241 247 250 256 263 267 272 276 272 273 273 277 277 277 276 276 274 275 278 278 279 281 282 282 283 283 284 286 287 286
231 233 234 234 233 234 235 237 238 238 242 243 243 246 247 247 256 259 260 267 271 273 275 279 282 276 275 274 274 277 278 279 279 280 279 279 280 282 282 283 284 284 285 285
233 233 235 236 237 236 236 239 240 241 243 244 247 248 250 246 251 259 264 266 270 273 278 280 278 276 274 274 277 279 279 280 280 280 280 280 281 282 283 284 284 282 281 280
234 234 232 235 236 237 238 241 244 244 245 246 247 250 249 255 255 259 263 267 271 275 279 278 278 276 275 276 276 278 278 279 280 282 282 282 282 283 283 284 283 280 278 276
236 236 238 237 240 241 243 244 245 247 247 247 247 252 252 253 262 264 263 265 269 273 276 276 277 277 277 277 277 277 279 280 281 282 282 282 282 283 284 284 281 278 277 277
235 235 237 237 239 240 243 246 248 249 250 248 249 252 254 259 258 260 265 266 271 275 274 274 273 273 274 274 275 277 279 282 282 282 282 282 282 283 283 280 280 279 279 278
236 236 236 239 241 242 244 245 248 250 252 254 256 256 259 261 264 265 268 271 274 273 271 271 272 273 275 276 278 281 283 283 284 284 283 283 283 283 281 279 277 277 276 273
238 239 240 239 243 247 249 251 251 255 257 256 255 257 258 260 264 269 274 277 275 275 275 274 275 277 278 279 281 283 284 286 286 285 284 285 284 281 277 276 277 278 278 276
242 243 241 241 244 246 248 250 256 256 257 258 258 259 259 261 264 269 272 275 275 275 277 278 278 278 279 281 283 284 285 284 283 283 286 285 279 277 278 277 277 276 278 277
245 245 244 244 243 245 249 250 252 254 256 259 259 261 267 270 270 271 274 274 275 276 277 279 279 280 281 283 283 283 282 283 285 286 281 275 274 274 274 273 273 274 272 274
244 247 249 248 248 251 253 254 255 256 257 260 263 263 264 267 271 271 273 275 275 277 278 279 282 285 286 285 285 285 287 288 287 282 275 273 271 268 268 267 268 271 272 273
250 251 250 252 252 250 252 251 252 253 258 258 260 261 270 271 273 275 274 275 276 276 278 279 279 281 283 285 284 285 283 278 270 269 266 267 266 269 269 269 270 270 272 274
243 243 245 244 246 248 248 250 251 252 254 253 260 265 264 265 271 273 275 273 271 273 275 278 280 279 280 283 283 281 275 263 264 261 268 268 264 266 266 270 275 273 272 273
238 240 243 247 253 257 252 252 253 254 252 261 262 267 258 266 266 266 266 268 271 274 277 276 277 276 275 276 274 275 273 267 266 269 271 277 278 275 272 276 281 282 278 278
238 239 243 245 246 244 250 247 248 249 253 253 260 258 265 266 269 269 265 270 272 271 272 272 271 273 275 274 273 272 276 275 275 277 273 276 278 277 278 280 283 281 285 280
242 246 242 241 241 240 244 249 248 251 256 251 258 260 271 267 262 259 267 267 268 267 265 267 272 272 271 272 271 271 270 272 270 271 270 272 273 272 276 280 280 279 279 282
242 245 246 245 244 246 244 244 258 255 252 257 257 266 260 258 258 260 260 261 263 265 268 269 269 269 270 270 270 272 273 272 270 268 270 269 268 276 280 278 282 274 291 293
249 247 247 248 249 249 247 244 248 254 254 254 257 260 265 261 259 257 259 261 265 267 267 268 269 269 269 268 270 271 271 271 271 271 270 273 275 277 279 268 292 296 294 289
243 243 247 251 251 252 246 243 253 257 259 259 259 262 257 255 258 253 260 263 267 267 262 264 262 264 265 266 267 268 268 268 269 268 274 278 284 284 290 291 293 291 288 285
252 261 245 246 246 256 255 247 253 255 257 257 258 259 263 260 262 261 266 260 258 254 258 262 266 269 271 271 271 271 271 268 273 277 283 282 282 283 286 287 288 288 287 285
254 250 251 248 247 250 250 248 250 254 257 251 258 266 258 262 264 253 257 259 256 255 258 263 271 274 273 271 270 270 269 264 275 284 279 277 278 281 282 283 285 285 284 285
248 253 251 246 245 254 241 246 254 253 251 261 265 262 259 263 268 261 257 262 261 261 260 264 271 272 270 269 268 270 262 259 271 278 278 279 280 280 281 282 282 281 282 283
247 246 246 245 250 251 248 251 251 264 261 250 254 255 258 261 272 268 264 264 265 266 265 262 270 275 266 265 266 264 264 274 277 277 278 279 279 279 278 278 279 280 282 286
250 249 251 250 248 251 253 255 254 263 257 262 253 255 258 262 260 257 260 263 264 265 267 265 268 271 265 264 265 266 268 271 275 277 278 278 277 277 277 279 281 284 286 288
253 249 251 252 253 252 247 249 249 256 254 252 253 256 256 253 258 257 261 262 260 260 265 267 266 266 265 265 266 268 270 273 275 276 277 277 277 278 280 282 284 286 288 291
250 243 245 240 258 252 247 241 253 251 254 251 247 254 257 259 261 261 260 261 260 263 264 264 265 266 267 267 269 271 274 277 278 278 278 278 279 281 283 285 287 289 290 291
Height
5746 5751 5758 5764 5771 5777 5780 5784 5789 5791 5794 5798 5801 5803 5811 5811 5813 5816 5819 5820 5822 5825 5824 5821 5820 5823 5821 5821 5820 5818 5817 5817 5816 5815 5813 5811 5809 5808 5807 5805 5802 5800 5797 5796
5737 5743 5751 5755 5760 5765 5770 5774 5779 5781 5782 5788 5790 5792 5798 5803 5806 5807 5810 5813 5814 5815 5814 5814 5815 5814 5813 5811 5810 5810 5809 5809 5807 5805 5804 5802 5799 5798 5797 5795 5793 5791 5788 5785
5728 5736 5742 5747 5752 5757 5762 5765 5768 5771 5773 5777 5780 5782 5786 5794 5794 5798 5801 5804 5804 5804 5805 5806 5805 5804 5803 5802 5801 5800 5798 5797 5796 5795 5793 5791 5788 5787 5785 5783 5782 5779 5776 5773
5716 5725 5731 5734 5741 5746 5750 5754 5758 5760 5762 5765 5768 5767 5775 5778 5788 5790 5792 5792 5793 5793 5794 5793 5793 5793 5793 5792 5791 5790 5788 5786 5784 5782 5781 5779 5777 5776 5773 5771 5769 5766 5764 5761
5712 5717 5722 5729 5737 5738 5742 5743 5746 5748 5749 5751 5756 5755 5766 5769 5772 5779 5783 5783 5784 5784 5783 5781 5781 5780 5780 5779 5778 5777 5776 5775 5773 5771 5769 5767 5765 5762 5760 5758 5755 5752 5750 5748
5697 5703 5709 5720 5721 5725 5728 5731 5734 5735 5735 5735 5748 5745 5754 5758 5763 5767 5770 5774 5774 5773 5772 5770 5770 5769 5767 5766 5765 5764 5764 5764 5762 5760 5758 5755 5752 5749 5746 5743 5740 5737 5735 5734
5684 5691 5699 5706 5709 5713 5716 5720 5720 5720 5721 5727 5735 5731 5750 5746 5749 5754 5758 5760 5760 5757 5758 5757 5756 5754 5753 5752 5751 5751 5750 5750 5748 5746 5744 5742 5739 5736 5732 5729 5726 5724 5722 5721
5675 5681 5689 5695 5697 5704 5707 5709 5711 5712 5711 5717 5718 5718 5730 5738 5739 5739 5740 5744 5744 5743 5741 5742 5742 5741 5740 5738 5737 5736 5735 5735 5734 5732 5729 5726 5724 5722 5719 5716 5714 5711 5710 5708
5667 5669 5676 5681 5685 5689 5693 5691 5705 5699 5698 5698 5704 5710 5713 5724 5727 5728 5729 5731 5727 5726 5727 5728 5727 5726 5725 5724 5722 5722 5721 5720 5719 5717 5715 5712 5709 5707 5704 5702 5701 5699 5697 5695
5650 5657 5661 5666 5672 5675 5678 5686 5684 5683 5685 5685 5692 5699 5705 5705 5712 5713 5713 5713 5714 5713 5710 5710 5711 5711 5710 5709 5709 5708 5706 5705 5704 5702 5699 5696 5693 5692 5691 5689 5688 5687 5686 5684
5641 5643 5650 5651 5657 5665 5668 5669 5671 5673 5672 5674 5680 5684 5695 5691 5692 5701 5700 5698 5698 5697 5695 5694 5694 5691 5689 5690 5690 5690 5689 5689 5687 5685 5683 5681 5679 5677 5676 5674 5673 5672 5671 5670
5633 5630 5634 5644 5648 5652 5652 5657 5656 5656 5659 5658 5661 5670 5690 5679 5680 5681 5683 5684 5682 5682 5682 5681 5679 5679 5678 5674 5674 5676 5674 5672 5672 5671 5670 5668 5667 5665 5664 5662 5661 5660 5658 5656
5618 5613 5620 5626 5629 5635 5637 5644 5645 5647 5646 5644 5647 5661 5678 5664 5670 5670 5667 5667 5667 5668 5667 5667 5668 5666 5666 5666 5663 5661 5661 5661 5660 5658 5657 5655 5654 5652 5651 5651 5649 5648 5646 5644
5603 5605 5607 5612 5627 5625 5625 5631 5632 5633 5631 5636 5635 5649 5660 5654 5658 5657 5654 5653 5654 5655 5656 5655 5653 5653 5652 5652 5651 5651 5650 5649 5647 5646 5645 5643 5642 5640 5638 5638 5635 5633 5631 5629
5589 5591 5598 5603 5609 5609 5608 5613 5615 5616 5622 5618 5632 5627 5646 5651 5644 5633 5641 5639 5641 5641 5642 5640 5638 5639 5640 5639 5638 5638 5637 5637 5636 5635 5634 5633 5631 5630 5628 5625 5622 5619 5618 5616
5579 5583 5588 5588 5596 5595 5595 5597 5601 5609 5612 5608 5614 5616 5636 5636 5633 5625 5623 5626 5626 5626 5625 5626 5628 5628 5627 5626 5625 5624 5624 5623 5622 5622 5621 5619 5618 5616 5614 5612 5609 5607 5604 5602
5570 5573 5575 5575 5586 5582 5576 5587 5593 5596 5597 5602 5599 5611 5619 5615 5617 5611 5610 5610 5610 5611 5614 5615 5615 5616 5615 5613 5612 5612 5611 5610 5609 5608 5607 5606 5604 5602 5602 5599 5597 5594 5590 5587
5562 5563 5565 5566 5572 5558 5571 5581 5583 5582 5585 5589 5589 5597 5605 5602 5598 5596 5598 5598 5599 5601 5603 5603 5602 5602 5601 5600 5600 5599 5599 5598 5597 5595 5593 5592 5592 5590 5588 5584 5582 5579 5578 5575
5554 5554 5552 5553 5555 5558 5560 5571 5575 5573 5572 5579 5579 5587 5588 5586 5580 5581 5589 5589 5590 5589 5588 5589 5589 5588 5587 5587 5586 5585 5585 5584 5582 5580 5580 5578 5576 5573 5572 5570 5568 5567 5565 5562
5544 5544 5541 5542 5543 5538 5551 5567 5564 5560 5550 5577 5572 5571 5574 5576 5566 5579 5575 5576 5574 5575 5576 5576 5577 5577 5576 5576 5575 5574 5573 5573 5569 5568 5566 5565 5563 5562 5560 5558 5556 5554 5551 5548
5531 5532 5529 5533 5529 5530 5550 5554 5550 5541 5560 5565 5562 5562 5561 5558 5562 5563 5565 5564 5564 5564 5565 5565 5565 5565 5564 5563 5564 5563 5561 5559 5556 5555 5554 5554 5551 5549 5547 5545 5542 5539 5537 5534
5517 5518 5519 5521 5516 5517 5543 5535 5535 5542 5543 5547 5551 5553 5549 5549 5548 5550 5551 5552 5552 5552 5552 5552 5552 5552 5552 5550 5550 5550 5548 5546 5544 5542 5540 5539 5536 5534 5532 5529 5527 5525 5522 5519
5492 5498 5502 5503 5504 5511 5519 5521 5523 5526 5527 5530 5532 5534 5534 5535 5536 5538 5539 5539 5539 5539 5540 5540 5540 5538 5539 5539 5537 5536 5534 5532 5529 5528 5526 5524 5521 5519 5517 5515 5512 5509 5505 5501
5475 5482 5476 5484 5486 5495 5506 5506 5511 5513 5512 5514 5517 5519 5518 5519 5520 5521 5522 5524 5525 5526 5525 5525 5526 5525 5525 5525 5524 5523 5521 5519 5517 5514 5511 5508 5505 5503 5501 5498 5496 5492 5488 5483
5462 5464 5463 5465 5470 5478 5488 5499 5500 5497 5497 5501 5500 5501 5502 5503 5504 5505 5507 5509 5510 5511 5510 5510 5510 5510 5510 5510 5509 5508 5506 5504 5502 5498 5495 5493 5490 5488 5485 5482 5478 5474 5469 5464
5445 5450 5452 5456 5463 5461 5471 5477 5481 5485 5482 5483 5486 5488 5489 5490 5491 5492 5493 5493 5495 5495 5495 5495 5495 5496 5495 5494 5493 5491 5490 5487 5485 5483 5480 5477 5475 5472 5468 5465 5460 5456 5450 5444